Location: Lafig�re
(44.4503°N, 4.0357°E)
Time: 02:08:03
(UTC+00:00)

Transit 4A - Pass Details

Date: 21 January 2021
Orbit: 866 x 979 km, 66.8° (Epoch: 24 February)

Event Time Altitude Azimuth Distance (km) Brightness Sun altitude
Rises 18:56:12 0° 196° (SSW) 3,654 11.3 -24.4°
Reaches altitude 10° 18:58:47 10° 193° (SSW) 2,716 10.5 -24.8°
Enters shadow 19:04:57 58° 118° (ESE) 1,127 8.0 -25.9°
Maximum altitude 19:05:01 58° 115° (ESE) 1,126 - -25.9°
Drops below altitude 10° 19:11:15 10° 39° (NE) 2,724 - -27.1°
Sets 19:13:51 0° 35° (NE) 3,666 - -27.5°
